Weather History for KARG - March, 2014

Change the Weather History Date:

Tuesday, March 25, 2014

  Actual Average Record
Temperature  
Mean Temperature 42 °F -  
Max Temperature 48 °F 60 °F 80 °F (2007)
Min Temperature 33 °F 42 °F 28 °F (2001)
Degree Days  
Heating Degree Days 24    
Moisture  
Dew Point 21 °F    
Average Humidity 47    
Maximum Humidity 75    
Minimum Humidity 25    
Precipitation  
Precipitation 0.00 in - - ()
Sea Level Pressure  
Sea Level Pressure 30.25 in    
Wind  
Wind Speed 12 mph (NW)    
Max Wind Speed 24 mph    
Max Gust Speed 30 mph    
Visibility 10 miles    
Events      
Averages and records for this station are not official NWS values.
T = Trace of Precipitation, MM = Missing Value Source: NWS Daily Summary

Daily Weather History Graph

Daily Weather History Graph

Search for Another Location

Airport or City:

Trip Planner

Search our weather history database for the weather conditions in past years. The results will help you decide how hot, cold, wet, or windy it might be!

Date:

Astronomy

Mar. 25, 2014 Rise Set
Actual Time 7:00 AM CDT 7:19 PM CDT
Civil Twilight 6:34 AM CDT 7:45 PM CDT
Nautical Twilight 6:04 AM CDT 8:15 PM CDT
Astronomical Twilight 5:33 AM CDT 8:46 PM CDT
Moon 3:12 AM CDT (3/25) 1:59 PM CDT (3/25)
Length of Visible Light 13h 11m
Length of Day
12h 19m
Waning Crescent, 32% of the Moon is Illuminated
Mar 25
Waning Crescent
Mar 30
New
Apr 7
First Quarter
Apr 15
Full
Apr 22
Last Quarter

Hourly Weather History & Observations

Time (CDT) Temp. Windchill Dew Point Humidity Pressure Visibility Wind Dir Wind Speed Gust Speed Precip Events Conditions
12:15 AM 41.0 °F 35.2 °F 28.4 °F 61% 30.17 in 10.0 mi NE 9.2 mph - N/A   Mostly Cloudy
12:35 AM 39.2 °F 33.6 °F 26.6 °F 61% 30.17 in 10.0 mi NE 8.1 mph - N/A   Scattered Clouds
12:55 AM 39.2 °F 34.2 °F 26.6 °F 61% 30.16 in 10.0 mi NE 6.9 mph - N/A   Overcast
1:15 AM 39.2 °F 35.0 °F 26.6 °F 61% 30.17 in 10.0 mi NNE 5.8 mph - N/A   Overcast
1:35 AM 39.2 °F 35.0 °F 24.8 °F 56% 30.17 in 10.0 mi North 5.8 mph - N/A   Overcast
1:55 AM 39.2 °F 33.6 °F 28.4 °F 65% 30.17 in 10.0 mi North 8.1 mph - N/A   Overcast
2:15 AM 39.2 °F 35.0 °F 26.6 °F 61% 30.17 in 10.0 mi North 5.8 mph - N/A   Overcast
2:35 AM 39.2 °F 35.9 °F 28.4 °F 65% 30.17 in 10.0 mi North 4.6 mph - N/A   Overcast
2:55 AM 41.0 °F 37.1 °F 28.4 °F 61% 30.17 in 10.0 mi NNW 5.8 mph - N/A   Overcast
3:15 AM 41.0 °F 34.7 °F 30.2 °F 65% 30.17 in 10.0 mi NW 10.4 mph - N/A   Overcast
3:35 AM 41.0 °F 33.9 °F 30.2 °F 65% 30.16 in 10.0 mi NW 12.7 mph - N/A   Overcast
3:55 AM 41.0 °F 34.3 °F 30.2 °F 65% 30.16 in 10.0 mi NNW 11.5 mph 19.6 mph N/A   Overcast
4:15 AM 39.2 °F 32.5 °F 30.2 °F 70% 30.16 in 10.0 mi NNW 10.4 mph - N/A   Mostly Cloudy
4:35 AM 37.4 °F 30.3 °F 30.2 °F 75% 30.16 in 10.0 mi NW 10.4 mph - N/A   Scattered Clouds
4:55 AM 37.4 °F 29.8 °F 30.2 °F 75% 30.16 in 10.0 mi NW 11.5 mph - N/A   Scattered Clouds
5:15 AM 37.4 °F 29.3 °F 28.4 °F 70% 30.18 in 10.0 mi NW 12.7 mph - N/A   Partly Cloudy
5:35 AM 37.4 °F 30.8 °F 28.4 °F 70% 30.18 in 10.0 mi NW 9.2 mph - N/A   Clear
5:55 AM 37.4 °F 28.5 °F 28.4 °F 70% 30.20 in 10.0 mi NW 15.0 mph - N/A   Clear
6:15 AM 35.6 °F 27.5 °F 26.6 °F 70% 30.21 in 10.0 mi NW 11.5 mph - N/A   Clear
6:35 AM 35.6 °F 26.6 °F 26.6 °F 70% 30.22 in 10.0 mi NW 13.8 mph - N/A   Clear
6:55 AM 35.6 °F 27.1 °F 26.6 °F 70% 30.24 in 10.0 mi NW 12.7 mph - N/A   Clear
7:15 AM 35.6 °F 27.5 °F 24.8 °F 65% 30.25 in 10.0 mi NW 11.5 mph - N/A   Partly Cloudy
7:35 AM 35.6 °F 27.5 °F 24.8 °F 65% 30.26 in 10.0 mi NW 11.5 mph - N/A   Clear
7:55 AM 35.6 °F 26.6 °F 26.6 °F 70% 30.26 in 10.0 mi NW 13.8 mph - N/A   Clear
8:15 AM 37.4 °F 28.9 °F 26.6 °F 65% 30.27 in 10.0 mi NNW 13.8 mph - N/A   Clear
8:35 AM 37.4 °F 27.5 °F 26.6 °F 65% 30.27 in 10.0 mi NW 18.4 mph - N/A   Clear
8:55 AM 39.2 °F 29.3 °F 26.6 °F 61% 30.28 in 10.0 mi NW 20.7 mph - N/A   Clear
9:15 AM 39.2 °F 29.3 °F 26.6 °F 61% 30.29 in 10.0 mi NW 20.7 mph - N/A   Clear
9:35 AM 41.0 °F 31.1 °F 23.0 °F 49% 30.29 in 10.0 mi NW 23.0 mph 26.5 mph N/A   Clear
9:55 AM 42.8 °F 34.0 °F 21.2 °F 42% 30.31 in 10.0 mi NW 20.7 mph - N/A   Clear
10:15 AM 42.8 °F 34.8 °F 21.2 °F 42% 30.31 in 10.0 mi NW 17.3 mph 24.2 mph N/A   Partly Cloudy
10:35 AM 42.8 °F 34.5 °F 10.4 °F 27% 30.30 in 10.0 mi NW 18.4 mph - N/A   Scattered Clouds
10:55 AM 44.6 °F 36.6 °F 12.2 °F 27% 30.30 in 10.0 mi NNW 19.6 mph 27.6 mph N/A   Mostly Cloudy
11:15 AM 44.6 °F 36.9 °F 15.8 °F 31% 30.30 in 10.0 mi NW 18.4 mph 28.8 mph N/A   Mostly Cloudy
11:35 AM 42.8 °F 34.5 °F 17.6 °F 36% 30.31 in 10.0 mi WNW 18.4 mph - N/A   Overcast
11:55 AM 44.6 °F 36.6 °F 19.4 °F 37% 30.31 in 10.0 mi NW 19.6 mph 26.5 mph N/A   Scattered Clouds
12:15 PM 44.6 °F 37.8 °F 19.4 °F 37% 30.30 in 10.0 mi NW 15.0 mph 26.5 mph N/A   Scattered Clouds
12:35 PM 46.4 °F 40.1 °F 19.4 °F 34% 30.30 in 10.0 mi NW 15.0 mph 25.3 mph N/A   Mostly Cloudy
12:55 PM 46.4 °F 38.1 °F 17.6 °F 32% 30.30 in 10.0 mi NW 24.2 mph 29.9 mph N/A   Mostly Cloudy
1:15 PM 46.4 °F 38.5 °F 12.2 °F 25% 30.30 in 10.0 mi WNW 21.9 mph 28.8 mph N/A   Mostly Cloudy
1:35 PM 46.4 °F 39.2 °F 12.2 °F 25% 30.30 in 10.0 mi NW 18.4 mph - N/A   Mostly Cloudy
1:55 PM 46.4 °F 39.5 °F 17.6 °F 32% 30.29 in 10.0 mi WNW 17.3 mph 28.8 mph N/A   Mostly Cloudy
2:15 PM 48.2 °F - 19.4 °F 32% 30.28 in 10.0 mi WNW 21.9 mph 29.9 mph N/A   Mostly Cloudy
2:35 PM 46.4 °F 38.7 °F 17.6 °F 32% 30.27 in 10.0 mi NW 20.7 mph 25.3 mph N/A   Mostly Cloudy
2:55 PM 48.2 °F - 17.6 °F 30% 30.27 in 10.0 mi NNW 21.9 mph 28.8 mph N/A   Partly Cloudy
3:15 PM 48.2 °F - 19.4 °F 32% 30.26 in 10.0 mi NW 16.1 mph 25.3 mph N/A   Partly Cloudy
3:35 PM 48.2 °F - 19.4 °F 32% 30.26 in 10.0 mi NNW 17.3 mph 21.9 mph N/A   Partly Cloudy
3:55 PM 48.2 °F - 19.4 °F 32% 30.26 in 10.0 mi NW 23.0 mph 26.5 mph N/A   Clear
4:15 PM 48.2 °F - 17.6 °F 30% 30.26 in 10.0 mi NNW 12.7 mph 21.9 mph N/A   Partly Cloudy
4:35 PM 48.2 °F - 15.8 °F 27% 30.26 in 10.0 mi NW 19.6 mph 25.3 mph N/A   Partly Cloudy
4:55 PM 48.2 °F - 17.6 °F 30% 30.25 in 10.0 mi NNW 12.7 mph 25.3 mph N/A   Clear
5:15 PM 48.2 °F - 15.8 °F 27% 30.25 in 10.0 mi NNW 18.4 mph 24.2 mph N/A   Partly Cloudy
5:35 PM 48.2 °F - 15.8 °F 27% 30.25 in 10.0 mi NW 17.3 mph 20.7 mph N/A   Clear
5:55 PM 46.4 °F 39.2 °F 15.8 °F 29% 30.26 in 10.0 mi WNW 18.4 mph - N/A   Clear
6:15 PM 46.4 °F 39.5 °F 15.8 °F 29% 30.26 in 10.0 mi NW 17.3 mph 21.9 mph N/A   Clear
6:35 PM 46.4 °F 40.7 °F 15.8 °F 29% 30.26 in 10.0 mi NW 12.7 mph - N/A   Clear
6:55 PM 44.6 °F 37.4 °F 15.8 °F 31% 30.26 in 10.0 mi NW 16.1 mph - N/A   Clear
7:15 PM 42.8 °F 36.2 °F 15.8 °F 34% 30.26 in 10.0 mi NNW 12.7 mph - N/A   Clear
7:35 PM 42.8 °F 37.5 °F 17.6 °F 36% 30.26 in 10.0 mi NW 9.2 mph - N/A   Clear
7:55 PM 39.2 °F 34.2 °F 17.6 °F 42% 30.27 in 10.0 mi NW 6.9 mph - N/A   Clear
8:15 PM 37.4 °F 32.8 °F 19.4 °F 48% 30.26 in 10.0 mi NW 5.8 mph - N/A   Clear
8:35 PM 37.4 °F 31.4 °F 15.8 °F 41% 30.26 in 10.0 mi NW 8.1 mph - N/A   Clear
8:55 PM 37.4 °F 32.1 °F 19.4 °F 48% 30.28 in 10.0 mi NW 6.9 mph - N/A   Clear
9:15 PM 37.4 °F 32.8 °F 17.6 °F 45% 30.28 in 10.0 mi NW 5.8 mph - N/A   Clear
9:35 PM 37.4 °F 32.8 °F 15.8 °F 41% 30.28 in 10.0 mi WNW 5.8 mph - N/A   Clear
9:55 PM 37.4 °F 32.8 °F 15.8 °F 41% 30.29 in 10.0 mi WNW 5.8 mph - N/A   Clear
10:15 PM 37.4 °F 32.8 °F 15.8 °F 41% 30.29 in 10.0 mi West 5.8 mph - N/A   Clear
10:35 PM 37.4 °F 32.8 °F 14.0 °F 38% 30.30 in 10.0 mi West 5.8 mph - N/A   Clear
10:55 PM 37.4 °F 32.8 °F 14.0 °F 38% 30.30 in 10.0 mi WNW 5.8 mph - N/A   Clear
11:15 PM 35.6 °F 29.9 °F 14.0 °F 41% 30.30 in 10.0 mi WNW 6.9 mph - N/A   Clear
11:35 PM 35.6 °F 29.9 °F 15.8 °F 44% 30.30 in 10.0 mi NW 6.9 mph - N/A   Clear
11:55 PM 33.8 °F 27.7 °F 19.4 °F 56% 30.31 in 10.0 mi NW 6.9 mph - N/A   Clear